Regional Weather Roundup
Issued by NWS

Home | Current Version | Previous Version | Graphics & Text | Print | Product List | Glossary On
Versions: 1 2 3 4 5 6 7 8 9 10 11 12 13 14 15 16 17 18 19 20 21 22 23 24 25 26 27 28 29 30 31 32 33 34 35 36 37 38 39 40 41 42 43 44 45 46 47 48 49 50
000
ASUS43 KLMK 301702
RWRKY
KENTUCKY REGIONAL WEATHER ROUNDUP
NATIONAL WEATHER SERVICE LOUISVILLE KY
100 PM EDT SUN AUG 30 2015

NOTE "FAIR" INDICATES FEW OR NO CLOUDS BELOW 12,000 FEET
WITH NO SIGNIFICANT WEATHER AND/OR OBSTRUCTIONS TO VISIBILITY.

KYZ001>023-026-027-061>063-070>075-301800-
WESTERN AND SOUTH CENTRAL KENTUCKY

CITY           SKY/WX    TMP DP  RH WIND       PRES   REMARKS
PADUCAH        CLOUDY    79  71  76 MISG      30.09S
HENDERSON      PTSUNNY   82  70  65 S9        30.08F
OWENSBORO      PTSUNNY   82  70  67 S7        30.12S
HOPKINSVILLE   PTSUNNY   80  69  67 S10       30.11F
BOWLING GREEN  PTSUNNY   83  65  54 SW10      30.13F
GLASGOW        PTSUNNY   80  65  58 SW6       30.14F
$$

KYZ024-025-028>034-038-045-046-053-301800-
NORTH CENTRAL KENTUCKY

CITY           SKY/WX    TMP DP  RH WIND       PRES   REMARKS
LOUISVILLE/SDF PTSUNNY   82  68  62 SW5       30.11S
LOUISVILLE/LOU MOSUNNY   83  67  58 VRB6      30.12F
FORT KNOX      PTSUNNY   80  69  69 SW6       30.11F
$$

KYZ035>037-039>044-047>052-055>060-089>105-301800-
NORTHEAST KENTUCKY

CITY           SKY/WX    TMP DP  RH WIND       PRES   REMARKS
LEXINGTON      MOSUNNY   83  68  60 VRB7      30.15F
COVINGTON      PTSUNNY   81  70  69 S6        30.12F
FRANKFORT      MOSUNNY   83  65  54 SW10      30.12F
$$

KYZ054-064>069-076>088-106>120-301800-
SOUTHEAST KENTUCKY

CITY           SKY/WX    TMP DP  RH WIND       PRES   REMARKS
JACKSON        CLOUDY    78  65  63 VRB3      30.20S
LONDON         PTSUNNY   81  59  47 W8        30.19F
SOMERSET       NOT AVBL
MIDDLESBORO    CLOUDY    75  66  73 CALM      30.20F
MONTICELLO     CLOUDY    81  67  62 SW7       30.20F
$$




USA.gov is the U.S. government's official web portal to all federal, state and local government web resources and services.